Flag for Germany Weather past 2 weeks in Achern, Baden-Württemberg, Germany

Now
61 °F

Sprinkles. Passing clouds.


Feels Like: 61 °F
Forecast: 50 / 64 °F
Wind: 3 mph from Southwest

Location: Karlsruhe - Baden Wurttemberg

Current Time: Aug 31, 2014 at 7:28:36 AM

Latest Report: Aug 31, 2014 at 6:50 AM


Visibility: N/A

Pressure: 29.98 "Hg

Humidity: 88%

Dew point: 57 °F

Location of AchernLocation

Historic Weather in Achern — Graph

°F

Achern temperature yesterday

Maximum temperature yesterday: 75 °F (at 4:20 PM)
Minimum temperature yesterday: 57 °F (at 6:50 AM)
Average temperature yesterday: 67 °F

Past Weeks' High & Low Weather Summary

 TemperatureHumidityPressure
High75 °F (Aug 28, 3:20 PM)94% (Aug 16, 6:20 AM)30.15 "Hg (Aug 16, 6:20 AM)
Low45 °F (Aug 25, 4:50 AM)38% (Aug 19, 5:50 PM)29.68 "Hg (Aug 26, 4:50 AM)
Average62 °F71%30.00 "Hg
* Reported Aug 16 6:20 AM — Aug 31 6:20 AM, Achern, Weather by CustomWeather, © 2014

Note: Actual official high and low records may vary slightly from our data, if they occured in-between our weather recording intervals... More about our weather records

Advertising

Achern weather history for previous 24 hours

 ConditionsComfort  
Time TempWeatherWind HumidityBarometerVisibility
6:20 AM
Aug 31
61 °FRain showers. Partly cloudy.6 mph88%29.98 "HgN/A
5:50 AM61 °FRain showers. Passing clouds.8 mph88%29.98 "HgN/A
5:20 AM61 °FRain showers. Passing clouds.8 mph88%29.98 "HgN/A
4:50 AM61 °FRain showers. Passing clouds.5 mph88%30.01 "Hg6 mi
11:50 PM
Aug 30
63 °FClear.3 mph83%30.07 "Hg10 mi
11:20 PM63 °FClear.3 mph83%30.07 "Hg10 mi
10:50 PM64 °FClear.3 mph78%30.07 "Hg10 mi
10:20 PM66 °FClear.2 mph68%30.07 "Hg10 mi
9:50 PM66 °FClear.5 mph73%30.07 "Hg10 mi
9:20 PM64 °FClear.2 mph78%30.07 "Hg10 mi
8:50 PM66 °FSunny.2 mph68%30.07 "Hg10 mi
8:20 PM68 °FSunny.1 mph64%30.04 "Hg10 mi
7:20 PM70 °FSunny.1 mph53%30.04 "Hg10 mi
6:50 PM72 °FSunny.2 mph50%30.07 "Hg10 mi
6:20 PM73 °FSunny.3 mph47%30.07 "Hg10 mi
5:50 PM73 °FSunny.3 mph47%30.07 "Hg10 mi
5:20 PM73 °FSunny.3 mph50%30.07 "Hg10 mi
4:50 PM73 °FPassing clouds.6 mph47%30.07 "HgN/A
4:20 PM75 °FSunny.3 mph44%30.07 "Hg10 mi
3:50 PM73 °FPassing clouds.8 mph50%30.07 "HgN/A
3:20 PM73 °FPassing clouds.3 mph53%30.07 "HgN/A
2:50 PM73 °FSunny.3 mph53%30.09 "Hg10 mi
2:20 PM72 °FPassing clouds.6 mph57%30.09 "HgN/A
1:50 PM72 °FPassing clouds.6 mph57%30.09 "HgN/A
1:20 PM72 °FPassing clouds.8 mph57%30.09 "HgN/A
12:50 PM70 °FScattered clouds.5 mph64%30.12 "HgN/A
12:20 PM70 °FScattered clouds.6 mph69%30.12 "HgN/A
11:50 AM70 °FScattered clouds.6 mph69%30.12 "HgN/A
11:20 AM66 °FScattered clouds.7 mph83%30.12 "HgN/A
10:50 AM66 °FScattered clouds.7 mph78%30.12 "HgN/A
10:20 AM66 °FScattered clouds.6 mph83%30.12 "HgN/A
9:50 AM64 °FPassing clouds.7 mph88%30.12 "HgN/A
9:20 AM63 °FSunny.6 mph94%30.12 "Hg10 mi
8:50 AM61 °FSunny.3 mph94%30.12 "Hg10 mi
8:20 AM59 °FSunny.3 mph94%30.12 "Hg10 mi
7:50 AM59 °FSunny.3 mph88%30.12 "Hg10 mi
7:20 AM57 °FLight fog.2 mph94%30.09 "Hg6 mi
Weather by CustomWeather, © 2014

See weather overviewHow to use our weather pages